Location: Boulder, CO
(40.0083°N, 105.2472°W)
Time: 14:21:18
(UTC-06:00)

SORCE - Visible Passes

Search period start: 29 May 2015 00:00
Search period end: 08 June 2015 00:00
Orbit: 589 x 621 km, 40.0° (Epoch: 28 May)

Date Brightness Start Highest point End Pass type
(mag) Time Alt. Az. Time Alt. Az. Time Alt. Az.
29 May 8.5 01:29:24 13° E 01:29:24 13° E 01:29:56 10° E visible
29 May 5.9 03:06:10 47° W 03:07:26 86° S 03:11:58 10° E visible
29 May 6.4 04:44:58 10° W 04:49:14 42° SSW 04:53:31 10° SE visible
30 May 8.2 01:40:59 16° E 01:40:59 16° E 01:41:57 10° E visible
30 May 5.8 03:17:46 38° W 03:19:24 72° SSW 03:23:55 10° ESE visible
30 May 7.0 04:57:11 10° W 05:01:02 27° SSW 05:04:52 10° SSE visible
31 May 8.2 01:52:59 16° E 01:52:59 16° E 01:53:57 10° E visible
31 May 6.0 03:29:48 36° WSW 03:31:19 54° SSW 03:35:44 10° ESE visible
31 May 7.6 22:33:39 10° SW 22:35:10 20° SSW 22:35:10 20° SSW visible
01 Jun 8.5 02:05:40 12° ESE 02:05:40 12° ESE 02:05:56 10° ESE visible
01 Jun 6.5 03:42:32 35° SW 03:43:11 37° SSW 03:47:19 10° SE visible
01 Jun 7.5 21:05:19 10° S 21:08:08 17° SSE 21:11:03 10° ESE visible
01 Jun 6.2 22:45:16 10° WSW 22:48:49 47° SSW 22:48:49 47° SSW visible
02 Jun 7.3 03:56:06 21° S 03:56:06 21° S 03:58:33 10° SSE visible
02 Jun 6.9 21:16:09 10° SSW 21:19:52 27° SSE 21:23:38 10° E visible
02 Jun 5.8 22:57:05 10° WSW 23:01:29 73° SSE 23:01:37 72° SSE visible
03 Jun 6.3 21:27:31 10° SW 21:31:40 42° SSE 21:35:51 10° E visible
03 Jun 5.8 23:09:02 10° W 23:13:27 87° S 23:13:43 79° E visible
04 Jun 6.0 21:39:13 10° WSW 21:43:33 60° SSE 21:47:54 10° E visible
04 Jun 5.8 23:21:01 10° W 23:25:21 86° WNW 23:25:21 86° WNW visible
05 Jun 5.8 21:51:05 10° WSW 21:55:28 78° S 21:59:53 10° E visible
05 Jun 6.2 23:33:01 10° W 23:36:43 62° W 23:36:43 62° W visible
06 Jun 5.9 22:03:02 10° W 22:07:27 89° S 22:11:11 14° E visible
06 Jun 6.8 23:45:01 10° W 23:47:56 41° W 23:47:56 41° W visible
07 Jun 5.9 22:15:01 10° W 22:19:26 89° N 22:22:18 22° E visible
